Change the Weather History Date:

Friday, August 24, 2012

  Actual Average (KMSP) Record (KMSP)
Temperature  
Mean Temperature 79 °F 70 °F  
Max Temperature 90 °F 79 °F 98 °F (1948)
Min Temperature 68 °F 61 °F 43 °F (1887)
Degree Days  
Heating Degree Days 0 1  
Month to date heating degree days 3  
Since 1 June heating degree days 52  
Since 1 July heating degree days 8  
Cooling Degree Days 14 6  
Month to date cooling degree days 170  
Year to date cooling degree days 646  
Since 1 June cooling degree days 604  
Growing Degree Days 29 (Base 50)    
Moisture  
Dew Point 64 °F    
Average Humidity 60    
Maximum Humidity 78    
Minimum Humidity 43    
Precipitation  
Precipitation 0.00 in 0.13 in 4.08 in (1893)
Month to date precipitation 3.44  
Year to date precipitation 21.31  
Snow  
Snow 0.00 in 0.00 in 0.00 in ()
Month to date snowfall 0.0  
Since 1 June snowfall 0.0  
Since 1 July snowfall 0.0  
Snow Depth -    
Sea Level Pressure  
Sea Level Pressure 29.84 in    
Wind  
Wind Speed 11 mph (South)    
Max Wind Speed 31 mph    
Max Gust Speed 48 mph    
Visibility 10 miles    
Events Rain , Thunderstorm    
T = Trace of Precipitation, MM = Missing Value Source: NWS Daily Summary

Daily Weather History Graph

Daily Weather History Graph

Search for Another Location

Airport or City:

Trip Planner

Search our weather history database for the weather conditions in past years. The results will help you decide how hot, cold, wet, or windy it might be!

Date:

Astronomy

Aug. 24, 2012 Rise Set
Actual Time 6:25 AM CDT 8:02 PM CDT
Civil Twilight 5:54 AM CDT 8:33 PM CDT
Nautical Twilight 5:17 AM CDT 9:10 PM CDT
Astronomical Twilight 4:36 AM CDT 9:50 PM CDT
Moon 2:41 PM CDT (8/24) No Moon Set
Length of Visible Light 14h 38m
Length of Day
13h 36m
First Quarter, 52% of the Moon is Illuminated
Aug 24
First Quarter
Aug 31
Full
Sep 8
Last Quarter
Sep 15
New
Sep 22
First Quarter

Hourly Weather History & Observations

Time (CDT) Temp. Heat Index Dew Point Humidity Pressure Visibility Wind Dir Wind Speed Gust Speed Precip Events Conditions
12:12 AM 78.8 °F - 58.6 °F 50% 29.73 in 10.0 mi South 20.7 mph 42.6 mph N/A Rain Light Rain
12:32 AM 79.0 °F - 56.5 °F 46% 29.72 in 10.0 mi South 31.1 mph 48.3 mph N/A Rain Light Rain
12:52 AM 75.4 °F - 58.6 °F 56% 29.77 in 10.0 mi West 10.4 mph 35.7 mph N/A Rain , Thunderstorm Light Thunderstorms and Rain
1:12 AM 76.3 °F - 59.2 °F 55% 29.79 in 10.0 mi South 21.9 mph 32.2 mph N/A Thunderstorm Clear
1:32 AM 75.2 °F - 60.8 °F 61% 29.80 in 10.0 mi South 17.3 mph 25.3 mph N/A Thunderstorm Clear
1:52 AM 73.8 °F - 61.5 °F 65% 29.80 in 10.0 mi South 10.4 mph 20.7 mph N/A   Clear
2:12 AM 72.9 °F - 61.7 °F 68% 29.80 in 10.0 mi South 4.6 mph - N/A   Clear
2:32 AM 72.5 °F - 61.7 °F 69% 29.80 in 10.0 mi SSE 4.6 mph - N/A   Scattered Clouds
2:52 AM 71.6 °F - 61.9 °F 71% 29.80 in 10.0 mi East 3.5 mph - N/A   Scattered Clouds
3:12 AM 71.2 °F - 61.9 °F 72% 29.81 in 10.0 mi SE 4.6 mph - N/A   Clear
3:32 AM 71.2 °F - 61.9 °F 72% 29.81 in 10.0 mi SSE 4.6 mph - N/A   Scattered Clouds
3:52 AM 70.7 °F - 62.2 °F 75% 29.81 in 10.0 mi SSE 6.9 mph - N/A   Scattered Clouds
4:12 AM 70.7 °F - 62.1 °F 74% 29.81 in 10.0 mi SSE 5.8 mph - N/A   Scattered Clouds
4:32 AM 70.7 °F - 61.9 °F 74% 29.82 in 10.0 mi SSE 6.9 mph - N/A   Clear
4:52 AM 70.2 °F - 62.1 °F 75% 29.82 in 10.0 mi SSE 5.8 mph - N/A   Scattered Clouds
5:12 AM 69.8 °F - 62.1 °F 76% 29.83 in 10.0 mi SSE 4.6 mph - N/A   Clear
5:32 AM 69.8 °F - 61.9 °F 76% 29.84 in 10.0 mi SSE 5.8 mph - N/A   Clear
5:52 AM 69.3 °F - 61.3 °F 76% 29.84 in 10.0 mi SSE 5.8 mph - N/A   Clear
6:12 AM 69.1 °F - 61.0 °F 75% 29.85 in 10.0 mi SSE 8.1 mph - N/A   Clear
6:32 AM 68.9 °F - 61.0 °F 76% 29.85 in 10.0 mi SSE 8.1 mph - N/A   Clear
6:52 AM 68.2 °F - 61.0 °F 78% 29.85 in 10.0 mi SSE 9.2 mph - N/A   Clear
7:12 AM 68.2 °F - 61.0 °F 78% 29.85 in 10.0 mi SSE 5.8 mph - N/A   Clear
7:32 AM 68.5 °F - 61.2 °F 77% 29.85 in 10.0 mi SSE 5.8 mph - N/A   Clear
7:52 AM 68.9 °F - 60.8 °F 75% 29.85 in 10.0 mi South 6.9 mph - N/A   Clear
8:12 AM 70.2 °F - 60.8 °F 72% 29.86 in 10.0 mi South 6.9 mph - N/A   Clear
8:32 AM 71.8 °F - 60.4 °F 67% 29.85 in 10.0 mi SSW 5.8 mph - N/A   Clear
8:52 AM 73.0 °F - 59.9 °F 63% 29.85 in 10.0 mi SSW 8.1 mph - N/A   Clear
9:12 AM 73.8 °F - 60.6 °F 63% 29.86 in 10.0 mi SW 4.6 mph - N/A   Clear
9:32 AM 74.7 °F - 61.5 °F 63% 29.86 in 10.0 mi South 3.5 mph - N/A   Clear
9:52 AM 75.7 °F - 62.4 °F 63% 29.86 in 10.0 mi SSW 6.9 mph - N/A   Clear
10:12 AM 77.4 °F - 63.7 °F 63% 29.86 in 10.0 mi South 8.1 mph - N/A   Clear
10:32 AM 79.2 °F - 64.9 °F 62% 29.86 in 10.0 mi SSW 6.9 mph - N/A   Clear
10:52 AM 79.5 °F - 65.3 °F 62% 29.86 in 10.0 mi SSW 9.2 mph - N/A   Clear
11:12 AM 80.6 °F 82.7 °F 65.8 °F 61% 29.86 in 10.0 mi SSW 11.5 mph - N/A   Clear
11:32 AM 80.6 °F 82.7 °F 66.2 °F 61% 29.86 in 10.0 mi SSW 10.4 mph - N/A   Clear
11:52 AM 82.4 °F 84.8 °F 66.7 °F 59% 29.86 in 10.0 mi South 10.4 mph 16.1 mph N/A   Clear
12:12 PM 83.5 °F 86.2 °F 67.1 °F 58% 29.86 in 10.0 mi SSW 12.7 mph - N/A   Clear
12:32 PM 84.6 °F 87.6 °F 67.6 °F 57% 29.85 in 10.0 mi SSW 11.5 mph 18.4 mph N/A   Clear
12:52 PM 85.3 °F 88.5 °F 67.8 °F 56% 29.85 in 10.0 mi SW 10.4 mph - N/A   Clear
1:12 PM 85.8 °F 88.8 °F 67.6 °F 54% 29.85 in 7.0 mi SSW 10.4 mph 16.1 mph N/A   Clear
1:32 PM 86.4 °F 89.7 °F 67.8 °F 54% 29.85 in 7.0 mi SSW 10.4 mph 18.4 mph N/A   Clear
1:52 PM 86.2 °F 89.1 °F 67.3 °F 53% 29.85 in 10.0 mi SSW 13.8 mph 18.4 mph N/A   Clear
2:12 PM 87.1 °F 90.2 °F 67.3 °F 52% 29.84 in 10.0 mi South 12.7 mph 20.7 mph N/A   Clear
2:32 PM 87.8 °F 90.7 °F 67.3 °F 50% 29.84 in 10.0 mi SSW 12.7 mph - N/A   Clear
2:52 PM 87.8 °F 90.4 °F 66.4 °F 49% 29.84 in 10.0 mi South 12.7 mph 18.4 mph N/A   Clear
3:12 PM 88.3 °F 91.2 °F 66.9 °F 49% 29.84 in 10.0 mi SW 11.5 mph 18.4 mph N/A   Clear
3:32 PM 89.2 °F 92.0 °F 66.7 °F 47% 29.83 in 10.0 mi South 13.8 mph 19.6 mph N/A   Scattered Clouds
3:52 PM 88.7 °F 91.9 °F 67.3 °F 49% 29.83 in 10.0 mi SSW 12.7 mph - N/A   Clear
4:12 PM 88.9 °F 91.8 °F 66.7 °F 48% 29.83 in 10.0 mi SW 12.7 mph 20.7 mph N/A   Clear
4:32 PM 88.5 °F 90.8 °F 66.2 °F 47% 29.83 in 10.0 mi SW 11.5 mph 18.4 mph N/A   Clear
4:52 PM 88.7 °F 90.4 °F 64.9 °F 45% 29.83 in 10.0 mi SSW 10.4 mph 23.0 mph N/A   Scattered Clouds
5:12 PM 89.2 °F 90.6 °F 64.2 °F 43% 29.82 in 10.0 mi SW 12.7 mph - N/A   Clear
5:32 PM 90.0 °F 92.0 °F 65.3 °F 44% 29.83 in 10.0 mi SSW 15.0 mph 19.6 mph N/A   Clear
5:52 PM 87.8 °F 89.4 °F 64.4 °F 46% 29.83 in 10.0 mi SSW 10.4 mph 23.0 mph N/A   Scattered Clouds
6:12 PM 88.5 °F 90.1 °F 64.8 °F 45% 29.83 in 10.0 mi SW 8.1 mph - N/A   Clear
6:32 PM 87.8 °F 89.4 °F 64.6 °F 46% 29.82 in 10.0 mi SSW 9.2 mph - N/A   Clear
6:52 PM 87.3 °F 88.9 °F 64.9 °F 47% 29.83 in 10.0 mi SSW 9.2 mph - N/A   Clear
7:12 PM 86.5 °F 88.4 °F 65.3 °F 49% 29.83 in 10.0 mi South 8.1 mph - N/A   Clear
7:32 PM 85.5 °F 87.4 °F 65.7 °F 51% 29.83 in 10.0 mi South 4.6 mph - N/A   Clear
7:52 PM 84.4 °F 86.3 °F 65.7 °F 53% 29.83 in 10.0 mi South 3.5 mph - N/A   Clear
8:12 PM 83.7 °F 85.5 °F 65.7 °F 54% 29.84 in 10.0 mi SSE 4.6 mph - N/A   Scattered Clouds
8:32 PM 82.4 °F 84.8 °F 66.7 °F 59% 29.84 in 10.0 mi South 3.5 mph - N/A   Scattered Clouds
8:52 PM 81.5 °F 84.1 °F 67.3 °F 62% 29.85 in 10.0 mi SSE 4.6 mph - N/A   Scattered Clouds
9:12 PM 80.8 °F 83.2 °F 67.1 °F 63% 29.85 in 10.0 mi SSE 5.8 mph - N/A   Clear
9:32 PM 79.9 °F - 66.4 °F 63% 29.85 in 10.0 mi SSE 4.6 mph - N/A   Clear
9:52 PM 78.8 °F - 66.6 °F 66% 29.85 in 10.0 mi South 4.6 mph - N/A   Clear
10:12 PM 78.8 °F - 65.7 °F 64% 29.86 in 10.0 mi South 5.8 mph - N/A   Clear
10:32 PM 78.8 °F - 63.3 °F 59% 29.86 in 10.0 mi South 9.2 mph - N/A   Clear
10:52 PM 78.4 °F - 61.7 °F 56% 29.86 in 10.0 mi South 9.2 mph - N/A   Clear
11:12 PM 77.5 °F - 61.2 °F 57% 29.87 in 10.0 mi South 9.2 mph - N/A   Clear
11:32 PM 76.8 °F - 60.6 °F 57% 29.87 in 10.0 mi SSW 9.2 mph - N/A   Clear
11:52 PM 76.3 °F - 60.3 °F 57% 29.87 in 10.0 mi SSW 10.4 mph - N/A   Clear